Date String (YYYY-MM-DD hh:mm:ss) UTC,Instrument flags,absolute air pressure of the measurement (hPa),sample flow rate (lpm),inlet stack bypass flow (lpm),air temperature of the measurement (°C),ambient temperature measured by the external sensor (°C),aerosol sample conditioner tube jacket temperature (°C),OPC LED temperature (°C),internal box temperature (°C),relative humidity of the measurement (%),span deviation,mass concentration of particles derived from Lorenz-Mie calculation of OPC scattering (μg/m³),mass concentration of particles derived from Lorenz-Mie calculation of OPC scattering (μg/m³),mass concentration of particles derived from Lorenz-Mie calculation of OPC scattering (μg/m³)
DateTimeUTC,F1_M11,P_M11,Q1_M11,Q2_M11,T1_M11,T2_M11,T3_M11,T4_M11,T5_M11,U1_M11,ZSPAN_M11,X0_M11,X2_M11,X1_M11
2023-07-27 19:00:00,SystemResetWarning,0833.2,5.00,000.00,028.6,026.2,000.0,036.9,030.1,23.8,0000.0,0007.35,0003.12,0002.31
2023-07-27 19:01:00,SystemResetWarning,0833.2,5.00,000.00,028.7,026.6,000.0,036.9,030.2,22.9,0000.0,0007.33,0003.14,0002.31
2023-07-27 19:02:00,SystemResetWarning,0833.2,5.00,000.00,028.7,027.0,000.0,037.0,030.3,20.0,0000.0,0008.20,0003.19,0002.33
2023-07-27 19:03:00,SystemResetWarning,0833.1,4.99,000.00,028.7,026.7,000.0,036.9,030.3,19.6,0000.0,0008.58,0003.19,0002.33
2023-07-27 19:04:00,SystemResetWarning,0833.3,5.00,000.00,028.7,025.3,000.0,036.8,030.1,20.6,0000.0,0008.54,0003.19,0002.33
2023-07-27 19:05:00,SystemResetWarning,0833.1,5.02,000.00,028.6,025.1,000.0,036.8,030.0,21.8,0000.0,0008.50,0003.17,0002.33
2023-07-27 19:06:00,SystemResetWarning,0833.0,4.99,000.00,028.6,025.5,000.0,036.8,030.0,22.5,0000.0,0008.76,0003.20,0002.33
2023-07-27 19:07:00,SystemResetWarning,0833.0,4.99,000.00,028.6,025.9,000.0,036.8,030.0,22.2,0000.0,0008.83,0003.21,0002.34
2023-07-27 19:08:00,SystemResetWarning,0833.0,5.01,000.00,028.6,026.3,000.0,036.9,030.1,22.6,0000.0,0008.74,0003.20,0002.34
2023-07-27 19:09:00,SystemResetWarning,0833.0,5.01,000.00,028.6,026.7,000.0,036.9,030.2,22.5,0000.0,0008.70,0003.19,0002.33
2023-07-27 19:10:00,SystemResetWarning,0833.1,5.00,000.00,028.7,027.1,000.0,036.9,030.3,20.4,0000.0,0008.69,0003.18,0002.32
2023-07-27 19:11:00,SystemResetWarning,0833.0,4.99,000.00,028.7,026.7,000.0,036.9,030.3,21.5,0000.0,0008.43,0003.20,0002.31
2023-07-27 19:12:00,SystemResetWarning,0833.0,4.99,000.00,028.7,025.4,000.0,036.8,030.1,20.3,0000.0,0008.00,0003.17,0002.28
2023-07-27 19:13:00,SystemResetWarning,0832.9,5.02,000.00,028.6,025.2,000.0,036.7,030.1,20.6,0000.0,0007.79,0003.15,0002.26
2023-07-27 19:14:00,SystemResetWarning,0832.9,5.00,000.00,028.6,025.6,000.0,036.8,030.0,20.8,0000.0,0007.61,0003.18,0002.27
2023-07-27 19:15:00,SystemResetWarning,0833.3,5.00,000.00,028.6,026.0,000.0,036.8,030.0,21.2,0000.0,0008.46,0003.19,0002.27
2023-07-27 19:16:00,SystemResetWarning,0833.0,5.00,000.00,028.6,026.4,000.0,036.9,030.1,20.8,0000.0,0008.62,0003.24,0002.29
2023-07-27 19:17:00,SystemResetWarning,0833.0,5.00,000.00,028.6,026.8,000.0,036.9,030.2,19.8,0000.0,0008.72,0003.25,0002.30
2023-07-27 19:18:00,SystemResetWarning,0832.9,5.00,000.00,028.7,027.1,000.0,036.9,030.3,20.4,0000.0,0008.96,0003.25,0002.28
2023-07-27 19:19:00,SystemResetWarning,0832.8,4.99,000.00,028.7,026.8,000.0,036.9,030.3,21.1,0000.0,0009.12,0003.25,0002.27
2023-07-27 19:20:00,SystemResetWarning,0832.8,5.00,000.00,028.7,025.4,000.0,036.8,030.0,21.2,0000.0,0009.13,0003.25,0002.26
2023-07-27 19:21:00,SystemResetWarning,0832.7,5.02,000.00,028.6,025.2,000.0,036.7,030.0,19.8,0000.0,0009.34,0003.30,0002.27
2023-07-27 19:22:00,SystemResetWarning,0832.8,4.99,000.00,028.6,025.6,000.0,036.8,029.9,20.5,0000.0,0009.84,0003.32,0002.29
2023-07-27 19:23:00,SystemResetWarning,0832.7,4.99,000.00,028.5,026.0,000.0,036.8,030.0,20.7,0000.0,0009.92,0003.34,0002.30
2023-07-27 19:24:00,SystemResetWarning,0832.6,5.00,000.00,028.6,026.4,000.0,036.8,030.1,19.9,0000.0,0009.92,0003.36,0002.29
2023-07-27 19:25:00,SystemResetWarning,0832.7,5.01,000.00,028.6,026.8,000.0,036.9,030.2,20.1,0000.0,0010.40,0003.36,0002.29
2023-07-27 19:26:00,SystemResetWarning,0832.7,5.01,000.00,028.6,027.0,000.0,036.9,030.3,19.6,0000.0,0010.90,0003.34,0002.27
2023-07-27 19:27:00,SystemResetWarning,0832.6,4.98,000.00,028.6,025.9,000.0,036.8,030.1,19.2,0000.0,0011.23,0003.33,0002.27
2023-07-27 19:28:00,SystemResetWarning,0832.7,5.00,000.00,028.6,025.0,000.0,036.7,030.0,20.1,0000.0,0011.74,0003.33,0002.25
2023-07-27 19:29:00,SystemResetWarning,0832.7,5.02,000.00,028.5,025.3,000.0,036.7,030.0,19.6,0000.0,0011.37,0003.33,0002.24
2023-07-27 19:30:00,SystemResetWarning,0832.6,5.00,000.00,028.5,025.7,000.0,036.7,029.9,18.5,0000.0,0011.21,0003.29,0002.24
2023-07-27 19:31:00,SystemResetWarning,0832.6,5.00,000.00,028.5,026.1,000.0,036.8,030.0,18.3,0000.0,0011.40,0003.32,0002.25
2023-07-27 19:32:00,SystemResetWarning,0832.7,5.00,000.00,028.5,026.6,000.0,036.8,030.2,19.2,0000.0,0011.41,0003.34,0002.25
2023-07-27 19:33:00,SystemResetWarning,0832.7,4.99,000.00,028.6,026.9,000.0,036.8,030.3,19.9,0000.0,0010.97,0003.31,0002.24
2023-07-27 19:34:00,SystemResetWarning,0832.7,4.99,000.00,028.6,026.5,000.0,036.8,030.2,22.2,0000.0,0010.96,0003.30,0002.22
2023-07-27 19:35:00,SystemResetWarning,0832.7,5.01,000.00,028.6,025.2,000.0,036.7,030.0,20.6,0000.0,0011.52,0003.32,0002.23
2023-07-27 19:36:00,SystemResetWarning,0832.7,5.01,000.00,028.5,025.1,000.0,036.6,030.0,20.4,0000.0,0010.72,0003.28,0002.21
2023-07-27 19:37:00,SystemResetWarning,0832.7,4.99,000.00,028.5,025.5,000.0,036.7,029.9,19.6,0000.0,0009.37,0003.29,0002.21
2023-07-27 19:38:00,SystemResetWarning,0832.6,5.00,000.00,028.5,025.9,000.0,036.7,029.9,18.9,0000.0,0008.77,0003.26,0002.20
2023-07-27 19:39:00,SystemResetWarning,0832.7,5.01,000.00,028.5,026.3,000.0,036.8,030.1,19.5,0000.0,0007.90,0003.26,0002.19
2023-07-27 19:40:00,SystemResetWarning,0832.7,4.99,000.00,028.5,026.8,000.0,036.8,030.2,19.9,0000.0,0007.89,0003.29,0002.20
2023-07-27 19:41:00,SystemResetWarning,0832.7,4.99,000.00,028.6,026.9,000.0,036.8,030.3,20.9,0000.0,0007.95,0003.34,0002.21
2023-07-27 19:42:00,SystemResetWarning,0832.7,5.00,000.00,028.6,025.7,000.0,036.7,030.1,20.1,0000.0,0007.88,0003.32,0002.20
2023-07-27 19:43:00,SystemResetWarning,0832.6,5.01,000.00,028.5,024.8,000.0,036.6,030.0,20.3,0000.0,0007.95,0003.30,0002.18
2023-07-27 19:44:00,SystemResetWarning,0832.7,5.01,000.00,028.5,025.2,000.0,036.6,029.9,20.4,0000.0,0007.86,0003.31,0002.18
2023-07-27 19:45:00,SystemResetWarning,0832.7,4.99,000.00,028.5,025.6,000.0,036.7,029.9,19.3,0000.0,0007.97,0003.34,0002.20
2023-07-27 19:46:00,SystemResetWarning,0832.6,5.00,000.00,028.5,026.0,000.0,036.7,030.0,18.9,0000.0,0007.37,0003.33,0002.19
2023-07-27 19:47:00,SystemResetWarning,0832.6,5.01,000.00,028.5,026.5,000.0,036.7,030.1,18.6,0000.0,0007.19,0003.37,0002.19
2023-07-27 19:48:00,SystemResetWarning,0832.7,5.00,000.00,028.5,026.9,000.0,036.8,030.2,18.6,0000.0,0007.09,0003.34,0002.18
2023-07-27 19:49:00,SystemResetWarning,0832.6,4.99,000.00,028.6,027.0,000.0,036.8,030.3,19.2,0000.0,0007.25,0003.33,0002.16
2023-07-27 19:50:00,SystemResetWarning,0832.7,5.00,000.00,028.6,025.7,000.0,036.7,030.1,19.8,0000.0,0007.39,0003.33,0002.17
2023-07-27 19:51:00,SystemResetWarning,0832.6,5.02,000.00,028.5,024.9,000.0,036.6,030.0,19.2,0000.0,0007.34,0003.32,0002.16
2023-07-27 19:52:00,SystemResetWarning,0832.6,4.99,000.00,028.5,025.2,000.0,036.6,029.9,19.3,0000.0,0007.24,0003.30,0002.15
2023-07-27 19:53:00,SystemResetWarning,0832.7,5.00,000.00,028.4,025.6,000.0,036.7,029.9,19.3,0000.0,0007.51,0003.31,0002.15
2023-07-27 19:54:00,SystemResetWarning,0832.6,5.01,000.00,028.5,026.0,000.0,036.7,030.0,19.3,0000.0,0007.40,0003.30,0002.14
2023-07-27 19:55:00,SystemResetWarning,0832.6,5.00,000.00,028.5,026.5,000.0,036.7,030.1,19.0,0000.0,0007.36,0003.27,0002.12
2023-07-27 19:56:00,SystemResetWarning,0832.6,5.00,000.00,028.5,026.9,000.0,036.8,030.2,18.9,0000.0,0007.20,0003.24,0002.11
2023-07-27 19:57:00,SystemResetWarning,0832.6,4.99,000.00,028.6,027.0,000.0,036.8,030.3,19.5,0000.0,0006.81,0003.20,0002.10
2023-07-27 19:58:00,SystemResetWarning,0832.5,5.00,000.00,028.6,025.7,000.0,036.7,030.2,20.4,0000.0,0006.60,0003.12,0002.08
2023-07-27 19:59:00,SystemResetWarning,0832.5,5.00,000.00,028.5,024.9,000.0,036.6,030.0,21.1,0000.0,0007.02,0003.12,0002.09
